Weather History for Waterloo, IA

Change the Weather History Date:

Thursday, May 30, 2013

  Actual Average Record
Temperature  
Mean Temperature 70 °F 65 °F  
Max Temperature 77 °F 77 °F 100 °F (1934)
Min Temperature 62 °F 54 °F 35 °F (1930)
Degree Days  
Heating Degree Days 0 3  
Month to date heating degree days 222 185  
Since 1 July heating degree days 7233 7001  
Cooling Degree Days 5 3  
Month to date cooling degree days 45 47  
Year to date cooling degree days 49 55  
Growing Degree Days 20 (Base 50)    
Moisture  
Dew Point 63 °F    
Average Humidity 79    
Maximum Humidity 93    
Minimum Humidity 64    
Precipitation  
Precipitation 0.01 in 0.16 in 1.86 in (2000)
Month to date precipitation 10.81 4.37  
Year to date precipitation 23.58 11.96  
Snow  
Snow 0.00 in 0.00 in - ()
Month to date snowfall 1.7 0.0  
Since 1 July snowfall 50.0 35.3  
Snow Depth 0.00 in    
Sea Level Pressure  
Sea Level Pressure 29.65 in    
Wind  
Wind Speed 15 mph (SSE)    
Max Wind Speed 29 mph    
Max Gust Speed 39 mph    
Visibility 10 miles    
Events Rain    
T = Trace of Precipitation, MM = Missing Value Source: NWS Daily Summary

Daily Weather History Graph

Daily Weather History Graph

Search for Another Location

Airport:

Trip Planner

Search our weather history database for the weather conditions in past years. The results will help you decide how hot, cold, wet, or windy it might be!

Date:

Astronomy

May. 30, 2013 Rise Set
Actual Time 5:35 AM CDT 8:39 PM CDT
Civil Twilight 5:01 AM CDT 9:13 PM CDT
Nautical Twilight 4:18 AM CDT 9:56 PM CDT
Astronomical Twilight 3:27 AM CDT 10:48 PM CDT
Moon 12:35 AM CDT (5/30) 11:49 AM CDT (5/30)
Length of Visible Light 16h 11m
Length of Day
15h 03m
Waning Gibbous, 62% of the Moon is Illuminated
May 30
Waning Gibbous
May 31
Last Quarter
Jun 8
New
Jun 16
First Quarter
Jun 23
Full

Hourly Weather History & Observations

Time (CDT) Temp. Dew Point Humidity Pressure Visibility Wind Dir Wind Speed Gust Speed Precip Events Conditions
12:01 AM 66.2 °F 64.4 °F 94% 29.73 in 10.0 mi SE 9.2 mph - N/A   Overcast
12:54 AM 68.0 °F 64.9 °F 90% 29.70 in 10.0 mi SE 8.1 mph - N/A   Mostly Cloudy
1:54 AM 69.1 °F 64.9 °F 87% 29.70 in 10.0 mi SSE 12.7 mph 20.7 mph N/A   Clear
2:54 AM 70.0 °F 64.0 °F 81% 29.68 in 10.0 mi SSE 13.8 mph 20.7 mph N/A   Scattered Clouds
3:54 AM 69.1 °F 63.0 °F 81% 29.66 in 10.0 mi SSE 15.0 mph 21.9 mph N/A   Partly Cloudy
4:54 AM 69.1 °F 62.1 °F 78% 29.66 in 10.0 mi SSE 17.3 mph 27.6 mph N/A   Clear
5:54 AM 68.0 °F 62.1 °F 81% 29.64 in 10.0 mi SSE 17.3 mph 24.2 mph N/A   Clear
6:54 AM 68.0 °F 62.1 °F 81% 29.66 in 10.0 mi SSE 16.1 mph 27.6 mph N/A   Clear
7:54 AM 69.1 °F 64.0 °F 84% 29.68 in 10.0 mi South 17.3 mph 25.3 mph N/A   Clear
8:54 AM 70.0 °F 64.9 °F 84% 29.69 in 10.0 mi South 12.7 mph 25.3 mph N/A   Overcast
9:54 AM 73.0 °F 64.0 °F 73% 29.68 in 10.0 mi South 16.1 mph 26.5 mph N/A   Partly Cloudy
10:54 AM 73.9 °F 62.1 °F 66% 29.68 in 10.0 mi South 21.9 mph 32.2 mph N/A   Overcast
11:54 AM 72.0 °F 62.1 °F 71% 29.68 in 10.0 mi South 23.0 mph 36.8 mph N/A   Mostly Cloudy
12:54 PM 75.0 °F 62.1 °F 64% 29.67 in 10.0 mi South 18.4 mph 32.2 mph N/A   Mostly Cloudy
1:54 PM 73.0 °F 62.1 °F 68% 29.65 in 10.0 mi South 15.0 mph 33.4 mph N/A   Overcast
2:54 PM 75.0 °F 63.0 °F 66% 29.61 in 10.0 mi SSE 10.4 mph 24.2 mph N/A   Mostly Cloudy
3:54 PM 73.0 °F 62.1 °F 68% 29.59 in 10.0 mi South 21.9 mph 32.2 mph 0.00 in Rain Light Rain
4:54 PM 68.0 °F 64.9 °F 90% 29.60 in 10.0 mi South 13.8 mph 20.7 mph 0.01 in Rain Light Rain
5:54 PM 68.0 °F 63.0 °F 84% 29.58 in 10.0 mi South 12.7 mph - 0.00 in   Clear
6:54 PM 70.0 °F 63.0 °F 78% 29.59 in 10.0 mi South 15.0 mph - N/A   Clear
7:54 PM 68.0 °F 61.0 °F 78% 29.62 in 10.0 mi South 16.1 mph 21.9 mph N/A   Mostly Cloudy
8:54 PM 66.0 °F 60.1 °F 81% 29.62 in 10.0 mi South 8.1 mph - N/A   Scattered Clouds
9:54 PM 64.9 °F 60.1 °F 84% 29.65 in 10.0 mi South 11.5 mph - N/A   Clear
10:54 PM 63.0 °F 59.0 °F 87% 29.67 in 10.0 mi South 11.5 mph - N/A   Clear
11:54 PM 63.0 °F 60.1 °F 90% 29.67 in 10.0 mi South 10.4 mph - N/A   Clear